Location: ????????
(55.0808°N, 38.5463°E)
Time: 12:33:41
(UTC+00:00)

Meteor 1-19 Rocket - Pass Details

Date: 14 April 2024
Orbit: 805 x 929 km, 81.2° (Epoch: 18 May)

Event Time Altitude Azimuth Distance (km) Brightness Sun altitude
Exits shadow 00:48:10 - 193° (SSW) 2,624 6.3 -12.9°
Reaches altitude 10° 00:48:18 10° 193° (SSW) 2,575 6.3 -12.9°
Maximum altitude 00:54:13 89° 281° (WNW) 926 4.4 -12.2°
Drops below altitude 10° 01:00:18 10° 14° (NNE) 2,644 7.6 -11.5°
Sets 01:02:49 0° 15° (NNE) 3,595 8.3 -11.2°
